Wind_Speed
30 30 29 27 23 23 23 23 24 25 26 26 25 25 26 26 25 24 25 26 25 26 27 28 29 29 29 28 29 30 31 30 30 29 29 29 28 27 27 26 25 25 24 23 22 22 21 21 21 21 21 21 22 22 22 21 21 22 22 23 23 23 23 24 24 24 24 24 24
31 30 29 27 23 21 21 22 22 23 24 26 26 26 27 27 26 26 26 26 26 26 27 28 28 28 28 28 29 29 30 30 30 29 29 29 28 27 27 26 25 25 24 24 23 22 22 21 22 22 22 22 22 22 22 22 21 22 22 23 23 23 24 24 25 25 25 25 25
32 30 28 26 23 21 21 21 22 23 24 25 26 27 28 28 27 27 27 27 27 27 27 27 27 28 28 28 28 29 29 30 30 29 29 29 28 27 27 26 25 25 24 24 23 23 22 22 22 23 23 23 23 23 23 22 22 22 23 23 23 23 24 25 25 25 25 26 26
32 30 27 25 24 23 23 23 23 24 25 26 26 27 28 28 28 27 27 27 27 27 27 27 27 28 28 28 28 28 28 29 29 29 29 28 28 27 27 26 26 25 24 24 24 23 23 23 23 23 24 24 24 24 24 23 23 23 23 23 23 24 24 25 25 25 25 26 26
31 28 26 25 25 25 25 25 25 26 27 27 27 27 28 28 28 27 27 27 27 27 27 27 27 27 27 27 27 27 28 28 29 29 29 28 28 27 27 26 26 25 25 24 24 24 23 23 23 24 24 24 24 24 24 23 23 23 24 24 24 24 25 25 25 25 25 25 25
29 27 25 26 27 27 26 26 27 28 28 28 28 28 28 28 27 27 27 27 28 27 27 27 26 26 26 26 26 26 26 27 28 28 28 28 28 27 27 26 26 26 25 25 24 24 24 24 24 24 24 24 24 24 24 23 23 24 24 24 24 24 25 25 25 25 25 25 25
28 26 26 27 28 28 27 27 28 29 29 29 29 29 29 28 28 28 28 27 27 26 26 25 24 24 24 24 25 25 25 26 26 27 27 27 27 27 27 26 26 26 25 25 25 24 24 24 24 24 24 24 24 24 24 24 24 24 24 25 25 25 25 25 25 25 25 25 25
27 27 27 28 29 29 28 28 29 29 29 29 29 29 29 29 28 28 27 27 26 25 24 23 23 22 22 22 23 23 24 24 25 25 26 26 26 26 26 26 26 26 25 25 25 25 24 24 24 24 24 24 24 24 24 24 24 24 25 25 25 25 25 25 25 25 25 25 25
26 27 28 28 29 29 29 29 29 29 29 29 29 29 29 28 27 27 27 26 25 24 23 22 21 20 20 20 20 21 22 22 23 23 24 24 25 25 25 25 26 25 25 25 25 25 24 24 24 24 25 24 24 24 24 24 24 25 25 26 26 26 25 25 25 25 25 25 25
27 28 28 28 28 28 28 28 28 28 28 28 27 27 27 27 27 26 26 25 24 23 22 21 20 19 19 19 19 19 19 20 20 20 21 22 22 23 24 24 25 24 24 23 23 24 24 24 24 25 25 25 25 25 25 25 25 25 26 26 26 25 25 25 24 24 24 24 24
28 28 28 28 28 28 28 28 28 27 27 26 26 26 27 27 27 26 25 23 23 22 21 20 19 19 18 18 18 17 17 17 18 18 18 19 19 20 21 21 22 22 22 21 21 22 23 23 24 24 24 24 25 25 25 25 26 26 26 26 26 25 25 25 24 24 24 24 24
28 28 28 28 28 28 27 27 27 26 26 26 26 26 27 27 26 25 24 23 22 21 20 19 18 18 18 17 17 17 16 16 16 16 16 17 17 17 17 18 19 19 19 19 19 20 21 22 23 23 23 23 23 24 24 25 25 25 25 25 25 25 25 25 24 24 24 24 24
27 27 27 27 27 27 26 26 26 26 26 26 26 26 26 26 26 24 23 22 21 20 19 18 18 17 17 16 16 16 15 15 15 15 15 15 15 15 15 16 16 16 17 17 17 18 19 20 20 21 21 21 22 22 23 23 24 24 24 24 24 24 24 24 24 24 24 25 25
26 26 26 26 26 26 25 25 25 25 26 26 26 26 26 25 25 24 23 21 20 19 18 18 17 16 16 15 15 15 14 14 14 14 14 14 14 14 14 14 15 15 15 15 16 17 18 19 19 19 19 20 20 20 21 21 22 22 23 23 23 24 24 24 24 24 25 26 26
24 25 25 25 25 25 25 25 25 25 26 26 26 26 25 24 24 22 21 20 19 18 17 17 16 16 15 14 14 13 13 13 13 13 13 13 13 14 14 14 14 14 14 15 15 16 17 18 18 18 18 19 19 19 19 20 21 21 22 22 23 23 23 23 24 25 25 26 26
24 25 25 25 25 24 24 25 25 25 25 25 25 24 24 23 22 20 19 18 17 17 16 16 15 15 14 13 13 12 12 12 12 12 12 12 13 13 13 13 14 14 14 14 15 16 16 17 17 18 18 18 18 18 19 19 20 21 22 22 22 23 23 24 24 25 25 24 24
25 25 25 25 25 25 25 25 25 24 24 24 23 22 22 21 20 19 18 17 16 16 15 15 14 14 14 13 13 12 12 12 12 12 12 12 12 12 12 13 13 13 13 14 14 15 15 16 16 17 17 18 19 19 20 20 21 22 23 23 23 24 24 24 24 23 23 22 22
26 26 26 25 25 25 24 24 24 23 23 22 22 21 20 19 19 18 17 16 16 15 15 14 14 14 13 13 13 12 12 12 12 12 12 11 11 11 11 11 11 12 12 13 13 13 14 14 14 15 16 18 19 20 20 21 22 22 23 23 24 24 24 23 23 22 22 22 22
26 26 26 25 25 24 24 23 23 22 22 21 20 20 19 19 18 17 17 16 15 15 14 14 13 13 13 13 12 12 11 12 12 12 11 11 10 10 10 10 10 10 11 12 12 13 13 13 14 15 16 18 19 20 20 21 22 22 23 23 23 23 23 23 22 22 22 21 21
26 26 26 25 24 23 23 22 22 21 20 20 19 18 18 18 17 17 16 15 15 14 13 13 12 12 12 11 11 10 10 10 10 10 10 9 9 9 9 9 10 10 11 12 13 14 14 15 15 16 17 18 19 19 19 20 20 20 21 21 21 21 21 20 20 19 19 18 17
25 25 25 24 23 23 22 21 21 20 19 18 18 17 16 16 15 15 14 14 13 13 12 11 10 10 9 9 9 9 9 9 8 8 8 8 8 8 9 10 10 11 12 13 13 14 15 15 16 16 16 17 17 17 17 17 18 18 18 18 17 16 15 15 14 13 11 10 10
23 23 23 23 22 22 21 20 19 18 17 17 16 15 14 14 13 13 12 12 12 11 11 10 9 9 8 8 8 9 9 9 9 9 8 8 9 9 10 10 10 10 11 11 11 11 12 12 12 12 11 12 12 13 14 14 14 14 12 11 10 9 8 7 6 5 5 5 6
21 21 22 22 21 20 19 19 18 17 16 15 14 14 13 13 12 12 12 12 11 11 10 9 9 9 8 8 8 8 8 8 9 9 9 9 9 9 8 8 6 5 5 5 5 5 6 6 6 6 6 5 5 6 6 6 5 4 3 2 2 2 2 2 3 4 5 6 7
19 19 20 20 19 19 18 17 16 15 15 14 13 13 13 13 12 12 12 11 11 10 10 9 9 8 8 7 7 6 7 7 8 8 8 7 6 6 5 5 4 3 2 1 1 1 2 2 3 4 4 3 2 2 2 1 2 2 3 2 2 1 1 3 4 5 6 7 8
16 16 17 17 16 16 16 15 15 14 13 13 12 12 12 12 12 11 11 10 10 9 9 9 8 8 8 8 8 7 7 7 8 8 8 8 8 7 7 6 6 5 3 2 1 1 0 1 2 2 2 2 2 2 2 1 1 1 1 1 1 2 3 5 6 7 7 7 8
15 15 14 14 14 14 13 13 13 13 12 12 11 11 11 11 11 10 11 10 10 10 9 9 9 9 9 9 9 9 9 9 9 9 9 9 9 8 7 7 6 5 3 3 2 2 1 1 1 1 1 2 1 1 1 1 1 1 2 3 4 5 5 6 6 7 8 8 8
15 14 14 13 13 13 13 13 13 12 12 12 11 11 11 11 10 10 10 10 10 10 9 9 9 9 9 9 9 9 9 9 9 9 9 9 8 7 7 6 6 5 5 4 4 3 3 3 2 2 2 1 1 1 1 2 2 3 3 4 5 5 6 6 6 7 7 7 8
15 15 14 14 14 13 13 12 12 12 12 11 11 11 10 10 10 10 10 10 9 9 9 9 9 9 9 9 9 10 10 10 9 9 9 8 8 7 7 7 7 6 6 6 5 5 4 3 3 2 2 2 2 2 2 2 3 3 3 4 4 5 5 5 6 6 6 7 8
16 15 15 15 14 14 13 12 12 11 11 11 10 10 10 10 10 10 9 9 9 9 9 9 9 9 9 10 11 11 11 11 10 9 9 9 9 8 8 8 7 6 6 6 6 5 4 4 4 3 3 3 3 2 2 2 2 2 2 2 3 4 5 5 5 6 6 7 8
18 17 17 16 15 15 14 14 13 12 11 11 10 10 10 10 10 10 10 9 10 10 10 11 11 11 11 12 12 12 12 12 12 11 11 11 11 10 9 8 7 6 5 4 4 4 4 4 4 4 3 3 2 2 1 1 2 3 3 4 4 4 4 5 5 6 6 7 7
20 19 19 18 17 17 16 15 14 13 12 12 11 11 12 12 12 12 12 12 13 13 13 13 14 14 14 14 14 15 15 14 14 13 12 12 11 11 10 9 7 5 4 3 3 3 4 4 4 4 3 3 2 3 4 5 5 5 5 5 4 4 4 5 5 6 6 6 7
21 21 20 20 19 19 18 17 16 15 15 15 15 15 15 16 16 16 16 17 17 16 16 16 17 17 17 17 17 17 17 16 15 14 13 12 11 10 9 8 8 6 5 4 3 4 4 4 4 4 4 4 5 6 6 6 6 6 5 4 4 4 4 5 5 5 6 6 7
20 20 20 19 19 19 19 19 18 18 18 19 19 20 20 21 21 20 20 20 19 19 19 19 19 19 19 19 19 18 17 16 14 13 11 10 9 8 8 8 8 8 7 6 6 6 6 6 6 6 6 6 6 7 6 6 5 5 5 5 5 5 5 5 5 6 6 7 8
20 20 20 20 19 19 19 19 19 19 20 21 22 22 22 22 21 21 21 20 20 20 20 20 20 20 19 18 18 17 16 15 13 11 10 8 7 7 8 10 10 10 9 9 9 8 8 8 8 7 7 6 6 6 6 5 5 5 5 6 6 6 6 6 7 7 8 8 9
21 21 21 20 20 19 19 19 19 19 20 21 21 21 21 21 21 20 20 19 19 20 20 20 19 19 18 17 16 16 15 14 13 11 10 9 9 10 12 13 12 11 11 11 10 10 9 8 8 7 6 6 6 6 6 6 6 7 7 7 6 6 7 7 8 8 9 9 9
20 21 20 20 20 20 20 20 20 20 20 20 20 20 20 20 19 19 18 17 17 18 19 18 18 17 17 16 16 15 14 13 13 12 11 10 11 12 14 15 14 13 12 11 11 10 9 8 8 7 6 6 6 6 6 7 7 7 7 7 7 7 7 8 8 8 8 8 8
19 19 19 19 19 19 20 20 21 21 20 20 20 20 20 19 18 18 17 16 16 18 18 17 17 17 16 16 16 15 14 13 13 13 13 12 12 13 14 15 14 13 12 11 10 10 9 9 8 7 6 6 7 7 7 7 7 7 7 6 6 6 7 7 7 7 7 7 7
18 18 18 19 19 19 19 20 20 20 20 19 19 19 19 18 17 17 17 17 18 19 20 19 19 19 18 17 16 16 15 14 14 15 15 15 14 14 15 15 14 13 12 11 11 10 10 9 8 7 7 7 7 6 6 6 6 6 6 5 5 5 5 6 6 6 6 6 7
18 17 18 18 19 19 19 19 19 19 18 19 19 19 19 18 18 18 18 19 20 20 21 21 21 20 19 19 18 18 17 16 16 16 17 17 16 15 15 16 15 14 13 13 12 11 11 10 9 8 8 8 7 6 6 5 5 5 5 4 4 4 5 5 5 6 6 6 7
17 16 17 17 18 18 19 19 18 18 18 18 19 20 19 19 19 19 20 20 21 21 21 22 21 21 20 20 21 21 20 19 18 18 18 19 18 17 17 17 17 15 14 13 13 12 11 11 10 10 9 9 8 7 6 4 4 4 4 4 4 5 5 6 6 6 7 7 7
16 16 16 16 17 17 18 18 18 18 18 19 19 19 19 19 20 21 21 21 21 21 21 21 21 21 21 21 21 22 22 21 20 19 19 19 19 18 18 18 17 16 14 13 12 12 11 11 10 10 9 9 8 7 5 3 3 4 4 4 5 6 7 7 8 8 8 8 8
Wind_Direction
173 172 174 177 182 184 183 184 184 184 184 184 184 185 187 187 189 191 193 194 195 197 199 200 201 202 202 203 204 204 205 205 206 208 209 211 212 214 215 216 217 217 217 218 218 219 220 221 222 224 226 228 229 231 233 235 238 240 243 246 248 251 253 256 258 260 261 262 263
170 171 173 177 183 185 184 184 183 183 184 185 186 187 188 189 190 192 194 195 197 199 200 201 202 203 203 204 205 205 205 206 207 208 210 211 213 215 216 218 219 219 220 220 220 220 221 223 224 226 228 230 232 234 235 238 239 241 243 245 248 250 252 255 257 258 260 262 264
168 170 174 179 183 185 184 183 182 182 184 185 187 189 190 191 192 194 195 196 198 200 201 202 203 204 204 205 206 207 207 207 208 209 211 212 214 215 217 219 220 221 222 222 222 223 224 225 226 228 230 232 234 236 237 239 241 242 244 246 248 250 252 254 256 258 260 261 263
168 171 176 181 184 185 184 183 182 182 184 185 188 190 192 193 194 195 196 197 199 200 202 203 204 205 206 207 208 208 209 209 210 211 212 213 215 216 218 220 221 222 223 224 225 226 227 228 229 231 233 235 236 238 240 242 243 244 246 248 250 251 252 254 256 258 260 261 263
169 174 178 182 184 184 184 183 182 182 183 185 187 190 192 194 195 196 197 198 200 202 205 206 207 208 209 209 210 210 211 211 212 213 214 215 216 217 219 221 222 224 225 226 227 228 229 231 232 234 236 237 239 241 243 245 245 247 248 250 251 252 254 256 257 259 261 262 263
171 175 180 182 183 183 182 182 182 183 184 186 187 189 191 194 195 197 199 200 203 205 207 208 209 210 211 211 212 212 212 213 214 215 216 217 218 219 220 222 223 225 226 228 229 230 232 233 235 236 238 240 242 244 246 247 248 249 250 251 253 254 256 257 259 260 261 262 264
172 176 180 182 182 181 181 181 183 184 184 186 188 190 192 194 197 199 202 204 205 206 208 209 210 211 211 212 213 213 214 215 216 217 218 219 220 221 222 224 225 227 228 229 231 232 234 235 236 238 240 242 243 245 247 248 249 250 251 253 255 256 257 258 260 261 262 263 264
173 177 179 180 180 180 181 182 183 183 184 187 189 192 195 197 199 202 204 205 206 206 207 208 210 211 212 212 213 214 215 216 217 218 220 221 223 224 225 226 228 229 230 232 233 234 235 237 238 239 241 242 244 246 247 249 250 251 253 255 257 258 259 260 261 262 263 264 265
174 176 177 177 178 180 182 183 184 184 185 188 191 194 197 198 200 202 204 205 206 206 206 207 208 209 211 212 213 214 215 216 218 219 221 223 225 226 228 229 230 231 233 234 235 236 237 238 240 241 242 244 245 247 249 251 251 253 254 256 258 260 261 262 263 264 264 265 266
170 172 174 175 178 181 182 184 185 186 187 190 193 196 198 199 201 202 204 204 205 205 206 206 206 207 208 210 210 212 213 215 217 219 221 223 226 228 229 231 232 233 234 235 236 237 238 240 241 242 244 246 247 249 251 253 253 254 256 258 259 260 261 263 264 264 265 266 266
167 171 174 176 179 181 182 183 184 186 189 191 194 196 198 200 201 202 203 203 204 205 205 204 204 205 206 206 207 208 210 211 214 216 219 221 224 227 230 232 233 234 235 235 236 237 239 240 241 243 245 247 249 251 252 254 255 256 257 259 260 261 262 264 265 265 265 266 266
168 172 176 178 179 181 182 182 184 186 189 192 195 197 199 201 202 202 202 203 204 204 203 202 202 203 203 204 205 206 207 209 211 213 216 219 222 224 228 231 233 235 235 235 235 236 238 239 241 243 246 248 249 250 252 254 255 256 257 259 260 261 262 264 265 266 266 266 264
170 173 175 177 179 181 182 183 184 187 190 193 196 198 200 201 202 201 202 202 203 202 201 201 201 201 201 202 203 205 207 208 210 212 214 217 220 222 225 228 231 234 235 235 234 235 237 239 241 243 245 247 249 250 252 254 255 256 257 259 260 261 262 264 266 267 267 265 262
171 172 174 177 179 181 182 183 185 188 191 194 197 199 200 201 201 202 202 201 201 201 200 200 200 201 202 203 204 207 209 211 213 215 217 218 220 222 224 226 229 232 234 234 234 234 236 238 240 243 245 247 250 252 254 256 257 258 259 260 260 261 263 264 266 266 264 262 260
168 171 174 177 179 180 182 184 186 189 192 195 197 199 199 200 201 201 200 200 199 199 198 199 201 202 204 206 208 211 213 215 217 219 220 222 222 224 225 227 229 231 233 234 235 235 237 239 241 244 247 249 252 255 257 258 259 260 260 260 261 262 263 264 264 263 261 260 260
166 169 173 175 177 179 181 184 187 190 192 195 196 197 197 197 198 198 198 198 197 197 198 200 201 203 206 208 211 214 215 217 219 221 223 224 225 226 227 229 230 232 234 235 236 238 240 242 244 247 250 253 256 258 260 261 261 260 260 260 261 261 262 262 262 262 261 261 261
165 168 171 173 175 178 181 184 186 189 191 192 193 193 193 193 194 194 195 196 196 196 198 199 201 203 205 208 210 213 216 217 219 221 224 226 227 229 230 232 234 235 237 238 240 241 244 246 249 251 253 255 257 259 260 261 261 261 260 260 261 261 261 262 263 263 263 263 263
166 168 170 172 175 177 180 183 185 187 188 189 189 190 190 191 192 193 194 195 196 196 197 198 200 202 204 206 209 212 215 217 219 222 224 227 230 232 235 237 240 241 243 244 245 247 249 251 253 254 255 256 258 259 260 261 261 262 262 262 262 263 264 265 265 265 265 265 266
168 170 172 174 176 178 180 182 184 185 186 187 188 189 190 191 192 193 194 195 196 196 196 197 199 201 204 206 208 211 215 219 221 224 227 230 234 238 241 244 246 248 249 249 249 250 252 254 255 256 257 258 259 260 261 262 263 264 265 266 267 267 268 269 269 269 269 270 273
171 173 174 176 177 179 180 182 183 184 185 186 187 189 191 192 193 195 196 196 196 197 198 200 201 203 205 207 209 211 215 219 223 226 230 234 238 242 245 247 250 251 251 251 250 251 253 255 257 259 261 262 263 265 266 267 267 268 269 269 269 270 270 271 271 272 274 277 281
171 174 176 177 178 178 179 181 181 182 183 185 187 188 190 192 193 195 196 196 197 199 200 202 203 205 207 207 208 211 213 216 220 223 227 230 235 238 240 242 244 247 248 250 252 254 256 258 261 263 264 265 267 268 270 270 271 270 269 268 268 267 268 268 270 272 276 281 285
167 171 174 176 176 176 177 177 178 179 180 181 183 185 187 188 190 191 194 196 197 198 199 200 203 205 207 208 209 210 212 213 216 219 221 224 228 232 236 239 242 246 250 254 258 261 263 265 266 267 267 267 267 267 268 269 270 270 268 266 265 264 263 262 265 268 274 281 288
161 167 170 172 173 173 173 174 175 176 178 179 182 183 185 186 188 190 193 196 197 196 195 197 199 201 202 204 206 208 209 211 214 217 219 222 224 228 231 234 233 235 242 252 261 266 269 269 269 269 269 267 263 258 258 261 262 257 244 227 213 219 235 251 264 271 277 282 288
155 161 166 168 169 171 172 174 176 177 179 181 184 186 188 190 191 193 194 195 193 190 189 190 189 188 187 186 185 186 189 193 197 198 195 191 188 187 185 183 173 166 164 169 203 260 272 269 268 269 268 264 246 217 202 189 156 145 144 146 151 178 252 278 284 288 290 292 293
145 151 157 161 165 168 171 174 176 178 179 180 182 185 186 188 188 188 185 182 177 175 173 173 171 168 166 163 159 157 158 162 164 161 154 148 147 147 146 144 141 134 127 117 106 93 282 264 261 257 245 224 209 206 205 197 178 173 190 244 279 295 299 300 300 302 303 303 302
131 136 141 147 153 157 161 165 167 168 168 168 169 169 169 169 169 168 164 160 156 155 155 154 153 152 152 152 150 148 146 144 144 144 142 140 139 139 136 133 130 127 124 115 109 109 117 144 163 159 152 149 164 180 194 207 267 297 306 307 307 307 309 310 311 311 311 310 310
123 125 129 136 140 143 146 151 154 155 156 157 157 156 154 154 154 154 153 150 149 149 150 149 148 148 148 149 148 146 143 141 140 141 141 140 137 134 130 126 120 117 115 108 105 105 106 106 103 101 98 85 56 17 353 338 322 314 313 311 309 309 312 315 317 317 317 318 318
121 124 128 131 132 134 137 142 144 146 149 151 152 152 152 153 153 152 151 151 152 154 154 153 152 152 152 150 148 146 144 141 141 141 140 140 136 131 126 121 115 109 102 96 93 89 87 83 74 62 43 22 7 353 339 328 318 313 313 315 320 324 327 330 331 332 334 335 334
118 121 123 123 123 124 128 130 133 136 140 145 148 151 152 153 152 151 150 149 149 148 147 147 148 147 144 139 140 141 140 138 138 138 138 135 132 127 121 116 111 105 98 89 79 69 61 53 43 31 19 8 359 348 336 324 323 330 342 355 3 4 2 2 359 355 351 347 342
110 113 114 114 114 114 115 116 119 123 128 132 136 140 142 141 141 140 139 138 135 134 135 137 136 133 129 128 130 131 130 130 131 131 130 127 123 119 116 111 106 99 88 75 58 45 36 32 27 21 15 12 8 15 39 65 68 63 59 56 48 39 27 17 8 360 353 348 345
103 105 106 106 106 105 106 109 113 116 118 121 122 123 124 123 122 123 124 124 125 127 130 132 129 125 123 123 123 121 120 120 120 120 120 118 115 112 108 104 99 89 72 51 36 29 29 31 30 30 29 33 45 62 74 79 79 77 75 70 61 44 26 13 5 0 357 354 354
98 99 100 99 99 99 102 106 110 111 112 114 114 114 113 112 112 113 115 117 118 121 122 122 120 119 117 117 116 114 113 111 109 107 105 104 103 102 100 97 92 85 75 63 57 55 54 54 55 56 56 57 63 70 75 77 76 74 69 63 51 38 27 19 13 8 4 2 1
97 98 98 97 97 99 101 104 106 108 109 109 108 108 108 107 108 109 111 113 114 115 115 115 114 114 113 113 112 110 108 105 102 98 96 94 93 94 94 92 89 87 86 87 85 83 80 77 74 71 67 64 65 68 72 75 73 70 66 60 53 45 38 30 23 18 13 10 8
98 98 98 97 98 101 103 105 106 107 107 106 105 106 106 107 107 107 109 111 112 113 112 112 111 111 111 110 110 108 107 105 103 101 100 100 102 104 101 96 93 92 93 94 93 91 88 84 80 76 73 71 72 74 76 77 76 74 71 66 56 46 36 31 26 21 17 14 13
96 97 96 97 99 101 104 107 109 109 108 107 107 107 108 108 108 108 110 112 112 112 110 110 110 109 108 107 106 106 106 105 104 104 104 106 108 105 102 98 96 96 96 95 94 92 89 86 82 79 78 82 84 84 82 79 77 74 70 64 56 46 36 30 24 20 17 15 14
95 96 96 96 97 99 101 104 108 110 110 109 108 108 109 110 110 112 113 115 115 113 111 110 110 110 108 106 105 105 105 106 106 105 105 106 106 102 98 96 95 95 95 95 94 93 92 89 87 86 86 86 86 84 81 78 75 71 64 56 48 41 35 29 25 20 16 14 12
93 96 97 96 95 96 97 100 103 106 107 108 108 108 109 110 110 113 118 121 119 116 114 113 113 111 109 107 104 103 105 108 109 108 107 106 103 99 95 93 92 91 91 92 93 93 93 93 94 95 94 90 85 80 77 74 71 66 57 50 44 41 36 29 25 20 17 14 12
92 96 98 97 96 96 97 98 99 101 103 105 106 108 110 111 111 113 118 122 119 116 113 111 108 107 106 105 103 102 103 106 107 106 103 100 99 96 94 92 90 88 87 87 89 90 92 95 97 99 97 89 82 76 71 69 68 64 57 50 47 47 45 38 31 27 23 18 14
91 96 99 99 98 97 97 97 97 98 99 102 104 107 109 110 110 112 116 118 117 114 110 106 103 101 102 102 101 99 98 98 100 100 98 96 95 94 94 91 89 88 87 87 88 88 88 89 89 89 87 84 79 72 68 70 75 77 74 67 62 59 56 49 42 38 34 26 18
93 98 101 101 101 99 98 98 97 98 99 101 103 105 107 109 111 113 114 114 113 111 107 104 102 101 101 101 99 97 95 93 93 94 94 94 93 93 91 89 87 86 87 89 90 88 86 83 81 79 78 77 75 69 64 66 85 95 95 84 72 62 53 45 40 39 39 35 25
97 101 103 104 104 102 101 100 100 101 102 103 104 106 109 112 113 113 112 111 109 108 106 104 103 102 101 100 98 96 93 91 90 91 93 94 93 92 89 87 84 83 82 85 88 88 86 83 80 78 76 74 73 70 65 62 83 89 81 67 56 45 38 33 31 32 36 38 34
Height
721 723 725 728 730 731 732 733 734 735 735 736 737 738 739 740 742 743 744 746 747 748 749 749 750 752 753 754 755 756 757 758 759 760 761 761 762 763 764 765 766 767 768 769 770 771 772 773 774 774 775 775 776 777 777 778 779 779 780 780 780 781 781 781 782 782 782 783 783
719 722 725 728 729 730 732 733 733 734 735 735 736 737 739 740 741 743 744 745 746 747 748 749 750 751 753 754 754 755 756 757 758 759 760 761 762 763 764 765 766 767 768 769 769 770 771 772 772 773 774 774 775 775 776 777 778 778 779 779 779 780 780 780 780 781 781 782 782
719 722 724 727 728 729 731 732 732 733 734 735 736 737 738 739 741 742 743 744 746 747 748 749 750 751 752 753 754 755 756 756 757 758 759 760 761 762 763 764 765 766 767 768 769 769 770 771 771 772 773 773 774 774 775 776 776 777 777 778 778 779 779 779 779 780 780 780 781
719 722 724 726 727 729 729 730 731 732 734 735 736 737 739 740 741 742 743 744 746 747 748 749 749 750 751 752 753 754 755 756 757 758 759 759 760 762 763 764 764 765 766 767 768 769 769 770 770 771 771 772 773 773 774 774 775 776 776 776 777 777 778 778 778 779 779 779 779
719 721 723 725 726 728 729 729 730 732 733 734 736 737 739 740 741 742 743 744 745 746 747 748 749 749 750 751 752 753 754 755 756 757 758 759 760 761 762 763 764 764 765 766 767 768 768 769 769 770 770 771 772 772 773 774 774 774 775 775 776 776 776 777 777 777 778 778 778
719 721 723 724 726 727 728 729 730 731 733 734 735 737 738 739 741 742 743 744 744 745 746 747 748 749 750 751 752 753 754 754 755 756 757 758 759 760 761 762 763 764 765 765 766 767 768 768 769 769 769 770 770 771 772 773 773 774 774 774 774 775 775 776 776 776 776 777 777
718 720 722 724 725 726 727 728 729 731 732 734 735 736 737 739 740 741 742 743 744 745 746 747 748 749 749 750 751 752 753 754 755 756 757 758 759 760 761 761 762 763 764 764 765 766 767 767 768 768 769 769 769 770 771 771 772 772 773 773 773 774 774 774 775 775 775 775 775
718 720 721 723 724 725 726 728 729 730 732 733 734 735 737 738 739 740 741 743 744 744 745 746 747 748 749 749 750 751 752 753 754 755 756 757 758 759 760 761 762 762 763 764 764 765 766 766 767 767 768 768 769 769 770 770 771 771 771 772 772 773 773 773 774 774 774 774 774
718 719 721 723 724 724 725 727 728 729 731 732 734 735 736 737 739 740 741 742 743 744 745 746 746 747 748 749 750 751 752 753 754 755 756 757 757 758 759 760 760 761 762 763 763 764 764 765 765 766 766 767 768 768 769 769 770 770 770 770 771 771 772 772 772 773 773 773 773
717 719 721 723 723 724 725 726 728 729 730 732 733 734 736 737 739 739 741 742 743 744 744 745 746 747 748 749 749 750 751 752 753 754 755 756 757 757 758 759 759 760 761 761 762 763 764 764 764 765 765 766 766 767 768 768 768 769 769 769 769 770 770 771 771 772 772 772 772
716 718 720 721 722 723 725 726 728 729 730 732 733 734 736 737 738 739 740 741 742 743 744 744 745 746 747 748 749 750 751 752 753 753 754 755 756 756 757 758 758 759 759 760 761 762 762 763 763 764 764 765 765 766 766 767 767 767 768 768 769 769 769 770 770 770 770 770 770
716 718 719 720 722 723 725 726 728 729 731 732 733 734 736 737 738 739 740 741 742 743 744 744 745 746 747 748 748 749 750 751 752 753 753 754 754 755 756 756 757 758 758 759 760 760 761 761 762 762 763 764 764 764 765 765 766 766 766 767 767 768 768 769 769 769 769 769 769
715 717 719 720 722 723 725 726 728 729 731 732 733 734 736 737 738 739 740 741 742 742 743 744 745 745 746 747 748 749 749 750 751 752 752 753 754 754 755 755 756 757 757 758 759 759 760 760 761 761 762 762 763 763 764 764 764 765 765 766 766 767 767 767 767 768 768 767 767
715 717 719 720 722 724 725 726 728 729 731 732 733 734 736 737 738 739 740 740 741 742 743 744 744 745 746 747 747 748 749 749 750 751 751 752 753 753 754 754 755 755 756 757 757 758 759 759 759 760 760 761 761 762 763 763 764 764 764 764 765 765 765 766 766 766 765 765 764
716 718 719 721 722 724 725 727 728 729 730 732 733 734 736 737 738 739 739 740 741 742 743 743 744 745 745 746 747 748 748 749 749 750 751 751 752 752 753 754 754 754 755 756 756 757 757 758 758 759 759 760 760 761 762 762 762 763 763 763 764 764 764 764 764 764 763 763 763
717 719 720 721 723 724 725 727 728 729 730 732 733 734 735 737 738 739 739 740 741 742 742 743 744 744 745 746 747 747 748 749 749 749 750 750 751 751 752 752 753 754 754 754 755 756 756 757 757 758 759 759 760 760 761 761 761 761 762 762 762 762 762 762 762 762 762 762 762
718 719 720 722 723 724 725 727 728 729 731 732 733 734 735 736 737 738 739 740 741 741 742 743 744 744 745 745 746 747 748 748 749 749 749 750 750 751 751 752 752 753 753 754 754 755 755 756 757 757 758 758 759 759 759 759 760 760 760 760 760 760 760 760 761 761 761 762 762
718 719 721 722 723 724 726 727 729 730 731 732 733 734 735 736 737 738 739 740 740 741 742 743 743 744 744 745 746 746 747 747 748 748 749 749 749 750 750 751 751 752 753 753 754 754 755 755 756 757 757 757 758 758 758 758 759 759 759 759 759 759 759 760 760 760 760 760 760
718 719 721 722 723 725 726 727 729 730 731 732 733 734 735 736 737 738 739 739 740 741 742 742 743 744 744 745 745 746 746 747 747 748 748 749 749 749 750 750 751 751 752 752 753 754 754 755 755 755 756 756 756 757 757 757 757 758 758 758 758 758 759 759 759 759 759 759 759
719 720 721 722 724 725 726 728 729 730 731 732 733 734 735 736 737 738 738 739 740 741 741 742 743 743 744 744 745 745 746 747 747 747 748 749 749 749 750 750 750 751 751 752 752 753 753 754 754 755 755 755 755 756 756 756 757 757 757 757 757 758 758 758 759 759 759 759 759
719 720 722 723 724 725 727 728 729 730 731 732 733 734 735 736 737 737 738 739 740 740 741 742 742 743 743 744 744 745 745 746 747 747 748 748 749 749 749 749 750 750 751 751 752 752 753 753 754 754 754 755 755 755 756 756 756 756 757 757 757 757 758 758 758 758 758 759 759
720 721 723 724 725 726 727 728 729 730 731 732 733 734 735 736 737 737 738 739 739 740 740 741 742 742 743 743 744 744 745 745 746 747 747 748 748 748 749 749 749 749 750 750 751 751 752 753 753 754 754 754 754 755 755 755 755 756 756 756 756 757 757 757 757 758 758 758 758
721 722 723 724 725 726 727 728 729 730 731 732 733 734 735 736 736 737 738 739 739 739 740 740 741 742 742 743 743 744 744 745 745 746 746 747 747 747 748 748 749 749 750 750 751 751 752 752 752 753 753 753 754 754 754 754 755 755 755 756 756 756 757 757 757 757 757 757 757
722 723 724 724 725 726 727 728 729 730 731 732 733 734 735 735 736 737 737 738 738 739 739 740 740 741 742 742 743 743 744 744 744 745 745 746 746 747 747 748 749 749 749 750 750 751 751 752 752 752 753 753 753 754 754 754 754 755 755 755 756 756 756 756 756 756 756 756 756
722 723 724 724 726 727 728 729 729 730 731 732 733 734 734 735 736 736 737 737 738 739 739 739 740 741 741 742 742 743 743 744 744 744 745 745 746 747 747 748 748 749 749 750 750 751 751 751 752 752 752 753 753 753 754 754 754 754 755 755 755 755 755 756 756 756 756 756 756
722 723 724 725 726 727 728 729 730 731 732 733 733 734 734 735 736 736 737 737 738 738 739 739 740 740 741 741 742 743 743 744 744 744 745 745 746 747 747 748 748 749 749 750 750 751 751 751 751 752 752 752 753 753 753 754 754 754 754 754 755 755 755 755 755 755 755 755 755
723 724 725 726 727 728 729 729 730 731 732 733 733 734 734 735 735 736 736 737 737 738 739 739 739 740 741 741 742 742 743 743 744 744 745 745 746 747 747 748 748 749 749 750 750 750 751 751 751 752 752 752 752 753 753 753 753 754 754 754 754 754 754 754 754 754 754 754 754
724 725 726 727 728 729 729 730 731 731 732 733 733 734 734 735 735 736 736 737 737 738 738 739 739 740 740 741 742 742 743 743 744 744 745 745 746 747 747 748 749 749 750 750 750 750 751 751 751 751 752 752 752 752 752 753 753 753 753 753 753 754 754 754 754 754 754 754 754
725 726 727 728 729 729 730 730 731 731 732 733 733 734 734 735 735 736 736 737 737 738 738 739 739 740 740 741 741 742 743 743 744 744 745 745 746 747 748 748 749 749 750 750 750 750 751 751 751 751 752 752 752 752 752 752 752 752 753 753 753 753 753 754 754 754 754 754 754
727 727 728 729 729 730 730 730 731 732 732 733 733 734 734 734 735 736 736 737 737 738 738 739 739 740 740 741 742 742 743 743 744 745 745 746 746 747 748 748 749 749 750 750 750 750 750 751 751 751 751 751 751 751 751 751 752 752 752 753 753 753 753 754 754 754 754 754 754
728 728 729 729 730 730 731 731 732 732 733 733 734 734 734 735 735 736 737 737 738 738 739 739 739 740 741 742 742 743 743 744 745 745 746 746 747 747 748 749 749 749 750 750 750 750 750 750 750 750 750 750 750 750 751 751 751 752 752 753 753 753 753 754 754 754 754 753 753
729 729 730 730 731 731 732 732 732 733 733 734 734 734 735 735 736 737 737 738 738 739 739 739 740 741 742 742 743 744 744 745 745 746 746 747 747 748 748 749 749 749 750 750 750 750 750 750 750 750 750 750 750 750 751 751 752 752 753 753 753 753 754 754 753 753 753 753 753
731 731 731 731 732 732 733 733 733 733 734 734 734 735 736 736 737 738 738 739 739 739 740 740 741 742 742 743 744 744 745 745 746 747 747 748 748 748 749 749 749 750 750 750 750 750 750 750 750 750 750 750 751 751 751 752 752 753 753 753 754 754 754 753 753 753 753 753 752
732 732 732 732 733 733 733 734 734 734 734 735 735 736 737 737 738 739 739 740 740 740 741 741 742 743 743 744 744 745 745 746 747 747 748 748 748 749 749 749 749 750 750 750 750 750 750 750 750 751 751 751 751 752 752 752 752 753 753 753 754 754 754 753 753 753 753 753 752
733 733 733 733 733 734 734 734 734 735 735 736 737 737 738 739 739 740 740 741 741 741 742 742 743 744 744 745 745 745 746 746 747 747 748 748 748 749 749 749 749 750 751 751 751 751 751 751 751 751 751 751 752 752 753 753 753 753 753 754 754 754 754 753 753 753 753 753 752
733 733 733 734 734 734 735 735 735 736 736 737 738 738 739 739 740 741 741 742 742 742 743 743 744 744 745 745 746 746 746 747 747 748 748 749 749 749 749 749 750 750 751 751 751 751 751 751 752 752 752 752 752 753 753 753 753 754 754 754 754 754 754 753 753 753 753 753 753
734 734 734 734 735 735 735 736 736 737 737 738 739 739 740 740 741 742 742 742 742 743 743 744 744 745 745 746 746 747 747 748 748 748 749 749 749 749 749 750 750 751 751 751 752 752 752 752 752 753 753 753 753 753 753 754 754 754 754 754 754 754 754 754 754 753 753 753 753
734 734 735 735 736 736 737 737 737 738 739 739 740 740 740 741 742 742 742 743 743 743 744 744 745 745 746 746 747 747 748 748 749 749 749 749 749 750 750 750 751 751 752 752 752 753 753 753 753 753 753 753 754 754 754 754 754 754 754 754 754 754 754 754 754 754 753 753 753
736 736 736 737 737 738 738 738 739 739 740 740 740 741 741 742 742 743 743 743 744 744 744 745 746 746 747 747 747 748 749 749 749 749 749 750 750 751 751 751 752 752 753 753 753 753 754 754 754 754 754 754 754 754 754 754 754 754 754 754 754 754 754 754 754 754 753 753 753
737 737 738 738 739 739 739 740 740 741 741 741 741 742 742 743 744 744 744 744 744 745 745 746 747 748 748 748 748 749 749 750 750 751 751 751 751 752 752 752 753 753 754 754 754 754 754 754 754 754 754 754 754 754 754 754 754 754 754 754 754 754 754 754 754 754 754 753 753
739 739 739 740 740 740 740 741 741 742 742 742 742 743 744 744 744 745 745 745 746 746 747 747 748 749 749 749 749 750 750 751 752 752 752 752 753 753 753 753 754 754 754 755 755 755 755 755 755 755 755 755 755 755 755 755 754 754 754 754 754 754 754 754 754 754 754 753 753